FW3296 Weather Reports


time (UTC)temp
C
wind
direction
speed
KPH
gust
KPH
rain 1hr
cm
rain 24hr
cm
rain mn
cm
humidity
%
barometer
mb
20260502182515 11 0.0 0.0 0.05 1.45 1.45 98 1012.0
20260502181535 11 65 1.6 8.0 0.05 1.45 1.45 98 1011.9
20260502180515 10 66 3.2 8.0 0.08 1.45 1.45 97 1011.8
20260502163515 11 77 3.2 6.4 0.15 1.30 1.30 97 1012.8
20260502162515 11 77 1.6 6.4 0.15 1.27 1.27 97 1013.0
20260502161515 10 70 3.2 9.7 0.18 1.27 1.27 97 1013.0
20260502160515 10 67 3.2 9.7 0.23 1.24 1.24 97 1013.0
20260502151515 10 108 6.4 16.1 0.43 1.09 1.09 96 1013.5
20260502150515 10 116 6.4 16.1 0.48 1.02 1.02 96 1013.6
20260502130515 13 117 8.0 14.5 0.00 0.05 0.05 89 1014.2
20260502123515 13 112 3.2 8.0 0.00 0.05 0.05 91 1014.6
20260502122515 13 70 1.6 9.7 0.03 0.05 0.05 92 1014.6
20260502121537 13 61 1.6 6.4 0.05 0.05 0.05 93 1014.7
20260502120516 13 62 1.6 8.0 0.05 0.05 0.05 93 1014.9
20260502115537 13 105 1.6 8.0 0.05 0.05 0.05 93 1015.0
20260502114516 13 120 3.2 6.4 0.05 0.05 0.05 93 1015.1
20260502113516 13 121 3.2 11.3 0.05 0.05 0.05 92 1015.3
20260502112516 13 128 4.8 11.3 0.05 0.05 0.05 92 1015.5
20260502111516 13 140 3.2 11.3 0.03 0.03 0.03 91 1015.7
20260502110516 13 141 6.4 11.3 0.03 0.03 0.03 91 1015.9
20260502105516 13 118 6.4 12.9 0.03 0.03 0.03 90 1016.1
20260502104516 13 124 4.8 11.3 0.00 0.00 0.00 89 1016.2
20260502103516 12 176 3.2 11.3 0.00 0.00 0.00 88 1016.2
20260502102516 12 169 4.8 14.5 0.00 0.00 0.00 87 1016.5
20260502101516 12 183 4.8 12.9 0.00 0.00 0.00 88 1016.5
20260502100536 12 186 4.8 11.3 0.00 0.00 0.00 89 1016.6
20260502091516 12 175 6.4 12.9 0.00 0.00 0.00 91 1016.7
20260502090516 12 155 6.4 12.9 0.00 0.00 0.00 92 1016.7
20260502071516 10 169 8.0 16.1 0.00 0.00 0.00 98 1017.5
20260502070516 10 175 4.8 12.9 0.00 0.00 0.00 98 1017.5
20260502065556 10 171 6.4 14.5 0.00 0.00 0.00 98 1017.6
20260502064516 10 170 8.0 14.5 0.00 0.00 0.00 98 1017.7
20260502063516 10 149 4.8 14.5 0.00 0.00 0.00 98 1017.6
20260502062516 10 143 4.8 14.5 0.00 0.00 0.00 98 1017.6
20260502061516 10 131 8.0 17.7 0.00 0.00 0.00 98 1017.7
20260502060516 10 136 6.4 12.9 0.00 0.00 0.00 98 1017.7
20260502055536 9 131 4.8 14.5 0.00 0.00 0.00 98 1017.7
20260502054516 9 134 4.8 12.9 0.00 0.00 0.00 98 1017.8
20260502053516 9 138 4.8 14.5 0.00 0.00 0.00 97 1018.1
20260502052516 9 133 8.0 16.1 0.00 0.00 0.00 98 1018.1
20260502051516 9 140 4.8 12.9 0.00 0.00 0.00 98 1018.2
20260502050516 9 140 6.4 14.5 0.00 0.00 0.00 97 1018.2
20260502045536 10 144 4.8 14.5 0.00 0.00 0.00 97 1018.3
20260502044516 10 182 4.8 11.3 0.00 0.00 0.00 97 1018.4
20260502043516 10 168 6.4 12.9 0.00 0.00 0.00 97 1018.4
20260502042516 10 174 4.8 8.0 0.00 0.00 0.00 97 1018.4
20260502041516 9 199 3.2 8.0 0.00 0.00 0.00 98 1018.7
20260502040516 8 233 1.6 4.8 0.00 0.00 0.00 97 1018.7
20260502035518 8 234 1.6 3.2 0.00 0.00 0.00 97 1018.8
20260502034519 8 234 1.6 4.8 0.00 0.00 0.00 97 1018.8
20260502033519 8 234 1.6 6.4 0.00 0.00 0.00 96 1018.9
20260502032518 9 232 1.6 4.8 0.00 0.00 0.00 96 1018.9
20260502031518 9 231 1.6 3.2 0.00 0.00 0.00 96 1018.9
20260502030518 9 231 0.0 3.2 0.00 0.00 0.00 96 1019.0
20260502025519 8 0.0 0.0 0.00 0.00 0.00 96 1019.0
20260502024519 9 0.0 0.0 0.00 0.00 0.00 96 1019.0
20260502023519 9 232 0.0 1.6 0.00 0.00 0.00 96 1019.0
20260502022518 9 228 0.0 4.8 0.00 0.00 0.00 96 1019.2
20260502021518 9 227 1.6 4.8 0.00 0.00 0.00 96 1019.3
20260502020541 8 229 3.2 6.4 0.00 0.00 0.00 96 1019.5
20260502015518 8 238 0.0 1.6 0.00 0.00 0.00 96 1019.7
20260502014518 8 238 0.0 3.2 0.00 0.00 0.00 96 1019.7
20260502013518 8 0.0 0.0 0.00 0.00 0.00 96 1019.8
20260502012518 9 0.0 1.6 0.00 0.00 0.00 96 1019.9
20260502011518 9 0.0 1.6 0.00 0.00 0.00 96 1020.0
20260502010541 9 238 0.0 3.2 0.00 0.00 0.00 96 1020.1
20260502005518 10 238 0.0 1.6 0.00 0.00 0.00 96 1020.3
20260502004518 10 238 0.0 1.6 0.00 0.00 0.00 96 1020.5
20260502003518 10 238 1.6 4.8 0.00 0.00 0.00 96 1020.5
20260502002518 10 238 0.0 3.2 0.00 0.00 0.00 96 1020.5
20260502001518 10 238 1.6 3.2 0.00 0.00 0.00 96 1020.7
20260502000541 9 238 0.0 3.2 0.00 0.00 0.00 95 1020.7
20260501235518 10 238 0.0 3.2 0.00 0.00 0.00 96 1020.8
20260501234541 10 238 3.2 4.8 0.00 0.00 0.00 95 1020.8
20260501233541 9 238 0.0 1.6 0.00 0.00 0.00 95 1020.9
20260501232541 9 238 0.0 1.6 0.00 0.00 0.00 95 1020.9
20260501231518 9 0.0 0.0 0.00 0.00 0.00 95 1020.8
20260501230518 9 238 0.0 1.6 0.00 0.00 0.00 95 1020.8
20260501225516 9 0.0 0.0 0.00 0.00 0.00 95 1020.9
20260501224605 10 0.0 0.0 0.00 0.00 0.00 95 1021.0
20260501223519 10 0.0 0.0 0.00 0.00 0.00 95 1021.0
20260501222519 10 238 0.0 3.2 0.00 0.00 0.00 95 1021.1
20260501221542 10 238 0.0 4.8 0.00 0.00 0.00 95 1021.2
20260501220542 10 238 1.6 4.8 0.00 0.00 0.00 94 1021.2
20260501215542 10 238 0.0 4.8 0.00 0.00 0.00 94 1021.2
20260501214519 10 238 1.6 6.4 0.00 0.00 0.00 94 1021.3
20260501213518 10 238 3.2 6.4 0.00 0.00 0.00 94 1021.3
20260501212519 11 238 3.2 6.4 0.00 0.00 0.00 93 1021.5
20260501211518 11 238 3.2 6.4 0.00 0.00 0.00 93 1021.5
20260501210518 11 238 3.2 8.0 0.00 0.00 0.00 92 1021.4
20260501205541 11 239 3.2 6.4 0.00 0.00 0.00 92 1021.4
20260501204519 11 238 3.2 6.4 0.00 0.00 0.00 91 1021.4
20260501203518 11 239 1.6 4.8 0.00 0.00 0.00 91 1021.2
20260501202519 11 239 3.2 6.4 0.00 0.00 0.00 91 1021.1
20260501201519 11 239 1.6 4.8 0.00 0.00 0.00 91 1021.0
20260501200518 11 239 3.2 6.4 0.00 0.00 0.00 90 1020.8
20260501195539 11 240 3.2 8.0 0.00 0.00 0.00 90 1020.7
20260501194515 11 240 3.2 8.0 0.00 0.00 0.00 90 1020.5
20260501193518 12 240 3.2 8.0 0.00 0.00 0.00 89 1020.5
20260501192518 12 241 3.2 8.0 0.00 0.00 0.00 88 1020.5
20260501191518 12 242 3.2 8.0 0.00 0.00 0.00 88 1020.5
20260501190518 12 242 3.2 12.9 0.00 0.00 0.00 87 1020.5
20260501185518 12 230 4.8 12.9 0.00 0.00 0.00 87 1020.4
20260501184518 12 246 4.8 12.9 0.00 0.00 0.00 86 1020.4
20260501183541 13 249 4.8 11.3 0.00 0.00 0.00 86 1020.5